This demonstration page uses our WeatherBlox Daily Observations layout. Learn more.

Left ArrowRight Arrow

38.80484, -77.04692

Hourly Observations for October 12, 2020

Temp ( °F °C ) Dew Point ( °F °C ) Humidity (%) Winds ( mph kmh ) Pressure ( in mb ) Visibility ( mi km ) Precip ( " mm )
12:32 am 00:32 Cloudy with Light Rain 66 18.9 64 17.8 93 93 ENE 8 13 30.02 1017 3 4 0.03 0.76
12:52 am 00:52 Cloudy with Light Rain 66 18.9 64 17.8 93 93 ENE 9 15 30.01 1016 3 5 0.07 1.78
1:17 am 01:17 Cloudy with Light Rain 66 18.9 64 17.8 93 93 ENE 9 15 30.01 1016 3 5 0.03 0.76
1:25 am 01:25 Cloudy with Light Rain 66 18.9 64 17.8 93 93 ENE 7 11 30.01 1016 3 5 0.04 1.02
1:52 am 01:52 Cloudy with Rain 66 18.9 64 17.8 93 93 NE 8 13 30.00 1016 3 5 0.07 1.78
2:03 am 02:03 Cloudy with Rain 66 18.9 64 17.8 93 93 ENE 12 19 29.99 1016 3 4 0.04 1.02
2:15 am 02:15 Cloudy with Light Rain 66 18.9 65 18.3 96 96 NE 8 13 29.99 1016 3 5 0.07 1.78
2:22 am 02:22 Cloudy with Light Rain 66 18.9 65 18.3 96 96 ENE 8 13 29.99 1016 3 5 0.08 2.03
2:52 am 02:52 Cloudy with Light Rain 66 18.9 65 18.3 96 96 ENE 10 17 29.98 1015 3 5 0.10 2.54
2:55 am 02:55 Cloudy with Light Rain 66 18.9 65 18.3 96 96 ENE 10 17 29.98 1015 5 8 0.00 0.00
3:03 am 03:03 Cloudy with Light Rain 66 18.9 65 18.3 96 96 ENE 10 17 29.98 1015 7 11 0.00 0.00
3:35 am 03:35 Cloudy with Light Rain 66 18.9 64 17.8 93 93 E 12 19 29.97 1015 5 8 0.02 0.51
3:52 am 03:52 Cloudy with Light Rain 66 18.9 65 18.3 96 96 ENE 9 15 29.97 1015 4 6 0.03 0.76
4:10 am 04:10 Cloudy with Light Rain 66 18.9 64 17.8 93 93 ENE 10 17 29.97 1015 4 6 0.04 1.02
4:20 am 04:20 Cloudy with Heavy Rain 66 18.9 64 17.8 93 93 ENE 9 15 29.96 1015 3 4 0.08 2.03
4:34 am 04:34 Cloudy with Heavy Rain 66 18.9 64 17.8 93 93 NE 13 20 29.96 1015 2 3 0.15 3.81
4:43 am 04:43 Cloudy with Rain 66 18.9 64 17.8 93 93 NE 10 17 29.96 1015 3 5 0.19 4.83
4:52 am 04:52 Cloudy with Rain 65 18.3 64 17.8 97 97 NNE 10 17 29.96 1014 3 5 0.22 5.59
4:56 am 04:56 Cloudy with Light Rain 65 18.3 64 17.8 97 97 NNE 10 17 29.96 1015 3 5 0.01 0.25
5:43 am 05:43 Cloudy with Light Rain 64 17.8 62 16.7 93 93 NNE 14 22 29.97 1015 3 5 0.29 7.37
5:52 am 05:52 Cloudy with Light Rain 64 17.8 62 16.7 93 93 NE 14 22 29.96 1015 3 5 0.30 7.62
6:11 am 06:11 Cloudy with Light Rain 63 17.2 62 16.7 97 97 NE 15 24 29.97 1015 5 8 0.01 0.25
6:39 am 06:39 Cloudy with Light Rain 63 17.2 61 16.1 93 93 NE 16 26 29.98 1015 5 8 0.03 0.76
6:52 am 06:52 Cloudy with Light Rain 63 17.2 61 16.1 93 93 NE 16 26 29.97 1015 4 6 0.03 0.76
6:59 am 06:59 Cloudy with Light Rain 63 17.2 61 16.1 93 93 NE 15 24 29.98 1015 4 6 0.00 0.00
7:18 am 07:18 Cloudy with Light Rain 63 17.2 61 16.1 93 93 NE 16 26 29.98 1015 3 5 0.01 0.25
7:52 am 07:52 Cloudy with Drizzle 62 16.7 60 15.6 93 93 NE 17 28 29.97 1015 3 5 0.01 0.25
8:49 am 08:49 Cloudy with Drizzle 63 17 61 16 94 94 NE 18 30 29.99 1016 3 4 0.00 0.00
8:52 am 08:52 Cloudy with Drizzle 62 16.7 60 15.6 93 93 NE 22 35 29.99 1016 3 4 0.00 0.00
9:15 am 09:15 Cloudy with Drizzle 61 16.1 59 15 93 93 NE 16 26 30.00 1016 3 4 0.00 0.00
9:37 am 09:37 Cloudy with Drizzle 61 16.1 59 15 93 93 NE 21 33 30.00 1016 4 6 0.00 0.00
9:52 am 09:52 Cloudy with Drizzle 61 16.1 59 15 93 93 NE 21 33 30.00 1016 4 6 0.00 0.00
10:25 am 10:25 Cloudy with Drizzle 60 15.6 58 14.4 93 93 NNE 15 24 30.01 1016 3 4 0.00 0.00
10:47 am 10:47 Cloudy with Drizzle 61 16 57 14 88 88 NE 17 28 30.00 1016 4 6 0.00 0.00
10:52 am 10:52 Cloudy with Drizzle 60 15.6 58 14.4 93 93 NE 16 26 29.99 1016 4 6 0.00 0.00
11:14 am 11:14 Cloudy with Light Rain 60 15.6 58 14.4 93 93 NE 14 22 30.00 1016 3 4 0.00 0.00
11:52 am 11:52 Cloudy with Light Rain 61 16.1 58 14.4 90 90 NE 17 28 29.98 1015 3 4 0.01 0.25
12:02 pm 12:02 Cloudy with Drizzle 61 16.1 58 14.4 90 90 NE 15 24 29.98 1015 4 6 0.00 0.00
12:52 pm 12:52 Cloudy with Drizzle 61 16.1 59 15 93 93 NE 15 24 29.98 1015 5 8 0.00 0.00
1:02 pm 13:02 Cloudy with Drizzle 61 16.1 58 14.4 90 90 NE 17 28 29.98 1015 3 4 0.00 0.00
1:21 pm 13:21 Cloudy with Drizzle 61 16.1 59 15 93 93 NE 14 22 29.97 1015 2 2 0.00 0.00
1:31 pm 13:31 Cloudy with Drizzle 61 16.1 59 15 93 93 NE 13 20 29.97 1015 2 3 0.00 0.00
1:52 pm 13:52 Cloudy with Drizzle 60 15.6 58 14.4 93 93 NE 16 26 29.96 1015 2 3 0.01 0.25
2:23 pm 14:23 Cloudy with Light Rain 60 15.6 58 14.4 93 93 NE 17 28 29.96 1015 2 2 0.01 0.25
2:35 pm 14:35 Cloudy with Light Rain 61 16.1 59 15 93 93 NE 17 28 29.96 1015 2 3 0.02 0.51
2:47 pm 14:47 Cloudy with Light Rain 61 16 59 15 94 94 NNE 15 24 29.95 1014 3 5 0.02 0.51
2:52 pm 14:52 Cloudy with Light Rain 61 16.1 58 14.4 90 90 NNE 14 22 29.95 1014 3 5 0.02 0.51
3:09 pm 15:09 Cloudy with Light Rain 61 16.1 58 14.4 90 90 NE 15 24 29.95 1014 3 4 0.00 0.00
3:30 pm 15:30 Cloudy with Mist and Fog 61 16.1 58 14.4 90 90 NE 16 26 29.95 1014 3 5 0.01 0.25
3:33 pm 15:33 Cloudy with Drizzle 61 16.1 59 15 93 93 NE 13 20 29.95 1014 3 5 0.01 0.25
3:52 pm 15:52 Cloudy with Drizzle 61 16.1 58 14.4 90 90 NNE 13 20 29.94 1014 4 6 0.01 0.25
3:57 pm 15:57 Cloudy with Drizzle 61 16.1 58 14.4 90 90 NNE 14 22 29.94 1014 4 6 0.00 0.00
4:06 pm 16:06 Cloudy with Drizzle 60 15.6 58 14.4 93 93 NE 16 26 29.94 1014 5 8 0.00 0.00
4:11 pm 16:11 Cloudy with Drizzle 60 15.6 58 14.4 93 93 NE 17 28 29.94 1014 5 8 0.00 0.00
4:32 pm 16:32 Cloudy with Drizzle 60 15.6 58 14.4 93 93 NE 12 19 29.94 1014 6 10 0.00 0.00
4:52 pm 16:52 Cloudy with Drizzle 60 15.6 58 14.4 93 93 NNE 16 26 29.94 1014 4 6 0.00 0.00
5:06 pm 17:06 Cloudy with Drizzle 60 15.6 58 14.4 93 93 NNE 15 24 29.95 1014 3 4 0.00 0.00
5:24 pm 17:24 Cloudy with Light Rain 60 15.6 58 14.4 93 93 NNE 10 17 29.95 1014 2 3 0.00 0.00
5:47 pm 17:47 Cloudy with Light Rain 61 16 57 14 88 88 NNE 13 20 29.96 1015 3 5 0.01 0.25
5:52 pm 17:52 Cloudy with Drizzle 59 15 58 14.4 96 96 N 14 22 29.95 1014 3 5 0.01 0.25
6:52 pm 18:52 Cloudy with Drizzle 59 15 57 13.9 93 93 NNE 12 19 29.95 1014 4 6 0.01 0.25
7:52 pm 19:52 Cloudy 59 15 57 13.9 93 93 NNE 13 20 29.95 1014 10 16 0.00 0.00
8:52 pm 20:52 Cloudy with Light Rain 59 15 57 13.9 93 93 N 10 17 29.95 1014 3 5 0.00 0.00
9:52 pm 21:52 Cloudy with Light Rain 58 14.4 57 13.9 97 97 N 12 19 29.95 1014 5 8 0.02 0.51
10:06 pm 22:06 Cloudy with Light Rain 59 15 57 13.9 93 93 N 10 17 29.96 1015 5 8 0.00 0.00
10:46 pm 22:46 Cloudy with Drizzle 59 15 57 14 94 94 NNW 9 15 29.95 1014 5 8 0.01 0.25
10:52 pm 22:52 Cloudy with Drizzle 59 15 57 13.9 93 93 NNW 9 15 29.95 1014 4 6 0.01 0.25
11:52 pm 23:52 Cloudy with Drizzle 59 15 57 13.9 93 93 NNW 12 19 29.93 1014 3 5 0.00 0.00

Powered by AerisWeather